Regional Weather Roundup
Issued by NWS New Orleans/Baton Rouge, LA

Home | Current Version | Previous Version | Text Only | Print | Product List | Glossary On
Versions: 1 2 3 4 5 6 7 8 9 10 11 12 13 14 15 16 17 18 19 20 21 22 23 24 25 26 27 28 29 30 31 32 33 34 35 36 37 38 39 40 41 42 43 44 45 46 47 48 49 50
000
ASUS44 KLIX 290610
RWRLIX
NEW ORLEANS REGIONAL WEATHER ROUNDUP
NATIONAL WEATHER SERVICE NEW ORLEANS LA
1200 AM CST THU JAN 29 2015

NOTE: "FAIR" INDICATES FEW OR NO CLOUDS BELOW 12,000 FEET WITH NO
      SIGNIFICANT WEATHER AND/OR OBSTRUCTIONS TO VISIBILITY.
      SKY/WX - SKY CONDITION AND SIGNIFICANT WEATHER.
      TMP - AIR TEMPERATURE.     DP    - DEWPOINT TEMPERATURE.
      RH  - RELATIVE HUMIDITY.   PRES  - PRESSURE.
      HI  - HEAT INDEX.          WCI   - WIND CHILL INDEX.

*  THESE STATIONS ARE NOT NWS OR FAA STATIONS AND ARE NOT UNDER
   NWS QUALITY CONTROL.

LAZ038-040-048-061>063-065>067-069-290700-
SOUTHEAST LOUISIANA

CITY           SKY/WX    TMP DP  RH WIND       PRES   REMARKS
N.O. AUDUBON     N/A     49  47  91 MISG        N/A
6HR MIN TEMP:  49; 6HR MAX TEMP:  59;

N.O. INTL ARPT PTCLDY    49  44  83 CALM      30.23R
6HR MIN TEMP:  48; 6HR MAX TEMP:  59;

N.O. LAKEFRONT PTCLDY    53  45  74 CALM      30.23R
6HR MIN TEMP:  51; 6HR MAX TEMP:  59;

N.O. DOWNTOWN* NOT AVBL
SLIDELL        PTCLDY    43  39  86 CALM      30.22S
6HR MIN TEMP:  43; 6HR MAX TEMP:  52;

BATON ROUGE    CLEAR     46  41  82 CALM      30.22S
6HR MIN TEMP:  46; 6HR MAX TEMP:  61;

BOOTHVILLE     CLEAR     50  46  86 CALM      30.23S
6HR MIN TEMP:  49; 6HR MAX TEMP:  55;

BELLE CHASSE   PTCLDY    44  41  89 CALM      30.22R FOG
6HR MIN TEMP:  43; 6HR MAX TEMP:  56;

BOGALUSA*        N/A     43  39  86 CALM      30.25R
6HR MIN TEMP:  42; 6HR MAX TEMP:  61;

GALLIANO*      FOG       46  45  97 MISG      30.22S VSB<1/4
6HR MIN TEMP:  46; 6HR MAX TEMP:  57;

NEW ROADS*       N/A     47  41  80 CALM      30.22R
6HR MIN TEMP:  47; 6HR MAX TEMP:  62;

GONZALES*        N/A     49  46  89 CALM      30.22S
6HR MIN TEMP:  49; 6HR MAX TEMP:  64;

HAMMOND*       PTCLDY    43  39  87 CALM      30.25R
HOUMA*         CLEAR     48  48 100 CALM      30.22S
6HR MIN TEMP:  46; 6HR MAX TEMP:  56;

PORT FOURCHON* CLEAR     63  55  77 SE6       30.24S

$$

MSZ070-080>082-290700-
SOUTHERN MISSISSIPPI

CITY           SKY/WX    TMP DP  RH WIND       PRES   REMARKS
MCCOMB         MOCLDY    47  41  80 S5        30.22S
6HR MIN TEMP:  47; 6HR MAX TEMP:  60;

GULFPORT       CLEAR     43  40  89 CALM      30.22F
6HR MIN TEMP:  42; 6HR MAX TEMP:  53;

BILOXI         CLEAR     48  48 100 E1        30.22S
6HR MIN TEMP:  47; 6HR MAX TEMP:  53;

PASCAGOULA     PTCLDY    39  38  96 CALM      30.23S
6HR MIN TEMP:  39; 6HR MAX TEMP:  50;


$$

COASTAL OBSERVATIONS
LAKE AND NEARSHORE STATIONS

STATION/POSITION TIME  TEMP    WIND        PRES    WAVE
                       AIR SEA DIR/SP/G            HT/PER
                 (UTC) (F)     (DEG/KT/KT) (MB)    (FT/S)
PASCAGOULA       0600   56     160/  2/  4 1022.9
WAVELAND YACHT   0600   51      CALM  /  1 1022.3
GRAND ISLE       0600   62 64  150/  5/ 11 1023.6
SOUTHWEST PASS   0600   56 46  140/  5/  8 1023.1
NEW CANAL        0600   53 54  240/  1/  2 1023.8
SHELL BEACH      0600   53 56  130/  5/  6 1023.0

OFFSHORE STATIONS

STATION/POSITION TIME  TEMP    WIND        PRES    WAVE
                       AIR SEA DIR/SP/G            HT/PER
                 (UTC) (F)     (DEG/KT/KT) (MB)    (FT/S)
64 S DAUPHIN ISL 0524   63 68  110/ 14/ 16 1023.5    2/ 5

$$




USA.gov is the U.S. government's official web portal to all federal, state and local government web resources and services.